Location: Wingville
(42.9917°N, 90.4915°W)
Time: 09:05:36
(UTC+00:00)

NOAA 19 - Visible Passes

Search period start: 29 June 2022 00:00
Search period end: 09 July 2022 00:00
Orbit: 840 x 861 km, 99.1° (Epoch: 28 June)

Date Brightness Start Highest point End Pass type
(mag) Time Alt. Az. Time Alt. Az. Time Alt. Az.
29 Jun 7.8 02:42:45 10° SW 02:46:01 16° W 02:49:16 10° NW visible
30 Jun 7.6 02:30:00 10° SW 02:33:59 20° W 02:38:00 10° NW visible
01 Jul 7.3 02:17:29 10° SSW 02:22:00 26° W 02:26:32 10° NW visible
06 Jul 8.1 03:02:32 10° W 03:03:45 11° W 03:04:59 10° WNW visible
07 Jul 7.8 02:48:51 10° WSW 02:51:42 14° W 02:54:34 10° WNW visible
08 Jul 7.7 02:35:57 10° SW 02:39:40 18° W 02:43:24 10° NW visible
